Flag for Switzerland Weather past 2 weeks in Reinach, Basel-Land, Switzerland

Now
52 °F

Overcast.


Feels Like: 52 °F
Forecast: 42 / 60 °F
Wind: 1 mph from Southwest

Location: Bale-Mulhouse

Current Time: Oct 26, 2014 at 12:52:16 AM

Latest Report: Oct 26, 2014 at 12:00 AM


Visibility: 6 mi

Pressure: 30.25 "Hg

Humidity: 95%

Dew point: 51 °F

Location of ReinachLocation

Historic Weather in Reinach — Graph

°F

Reinach temperature yesterday

Maximum temperature yesterday: 60 °F (at 3:00 PM)
Minimum temperature yesterday: 47 °F (at 6:00 AM)
Average temperature yesterday: 52 °F

Past Weeks' High & Low Weather Summary

 TemperatureHumidityPressure
High76 °F (Oct 19, 4:00 PM)100% (Oct 24, 9:00 AM)30.33 "Hg (Oct 24, 9:00 AM)
Low33 °F (Oct 24, 8:00 AM)44% (Oct 23, 4:00 PM)29.74 "Hg (Oct 15, 5:00 PM)
Average56 °F85%30.03 "Hg
* Reported Oct 10 10:00 PM — Oct 25 10:00 PM, Reinach, Weather by CustomWeather, © 2014

Note: Actual official high and low records may vary slightly from our data, if they occured in-between our weather recording intervals... More about our weather records

Advertising

Reinach weather history for previous 24 hours

 ConditionsComfort  
Time TempWeatherWind HumidityBarometerVisibility
10:00 PM
Oct 25
52 °FOvercast.1 mph95%30.23 "Hg6 mi
9:00 PM53 °FOvercast.1 mph93%30.21 "Hg7 mi
8:00 PM53 °FLight rain. Overcast.5 mph91%30.20 "Hg7 mi
7:00 PM55 °FLight rain. Overcast.3 mph86%30.18 "Hg9 mi
6:00 PM58 °FOvercast.2 mph73%30.16 "Hg12 mi
5:00 PM59 °FOvercast.1 mph69%30.15 "Hg12 mi
4:00 PM60 °FOvercast.3 mph66%30.14 "Hg12 mi
3:00 PM60 °FOvercast.1 mph66%30.14 "Hg9 mi
2:00 PM59 °FPartly sunny.3 mph67%30.14 "Hg9 mi
1:00 PM55 °FOvercast.3 mph77%30.16 "Hg9 mi
12:00 PM53 °FOvercast.6 mph82%30.16 "Hg6 mi
11:00 AM50 °FLight rain. Overcast.5 mph89%30.17 "Hg5 mi
10:00 AM50 °FLight rain. Overcast.2 mph85%30.16 "Hg6 mi
9:00 AM48 °FOvercast.2 mph86%30.15 "Hg7 mi
8:00 AM48 °FOvercast.3 mph88%30.14 "Hg6 mi
7:00 AM47 °FOvercast.2 mph88%30.13 "Hg8 mi
6:00 AM47 °FOvercast.1 mph86%30.14 "Hg9 mi
5:00 AM48 °FOvercast.3 mph85%30.12 "Hg11 mi
4:00 AM49 °FOvercast.5 mph83%30.12 "Hg9 mi
3:00 AM48 °FOvercast.3 mph84%30.12 "Hg11 mi
2:00 AM48 °FOvercast.3 mph84%30.12 "Hg11 mi
1:00 AM48 °FOvercast.2 mph84%30.12 "Hg10 mi
12:00 AM49 °FOvercast.3 mph82%30.13 "Hg9 mi
Weather by CustomWeather, © 2014

See weather overviewHow to use our weather pages